Tracking 18673 objects as of 27-June-2017
HD Live streaming from Space Station
objects crossing your sky now

TEAMSAT

Track TEAMSAT now!
10-day predictions
TEAMSAT is classified as:


NORAD ID: 25025
Int'l Code: 1997-066C
Perigee: 571.7 km
Apogee: 26,598.6 km
Inclination: 7.8 °
Period: 467.6 minutes
Semi major axis: 19956 km
RCS: 0.5073 m2 (medium)
Launch date: October 30, 1997
Source: European Space Agency (ESA)
Launch site: FRENCH GUIANA (FRGUI)
Your satellite tracking list
Your tracking list is empty





NASA's NSSDC Master Catalog

Two Line Element Set (TLE):
1 25025U 97066C   17177.75705792 -.00000088 +00000-0 +49683-4 0  9998
2 25025 007.8446 035.1183 6521010 098.4508 086.7639 03.07954430221228
Source of the keplerian elements: AFSPC